Location: Mentone
(34.5413°N, 85.5351°W)
Time: 04:13:30
(UTC-05:00)

UOSAT-12 - Visible Passes

Search period start: 30 July 2016 00:00
Search period end: 09 August 2016 00:00
Orbit: 624 x 630 km, 64.6° (Epoch: 29 July)

Date Brightness Start Highest point End Pass type
(mag) Time Alt. Az. Time Alt. Az. Time Alt. Az.
04 Aug 9.7 05:25:54 10° SSE 05:29:07 19° ESE 05:32:22 10° ENE visible
07 Aug 9.2 04:45:05 10° SSE 04:48:40 23° ESE 04:52:15 10° ENE visible
08 Aug 7.7 05:03:54 10° SSW 05:08:20 57° ESE 05:12:48 10° NE visible
